EDC125 EDXW-ENBR

Flight info

Callsign EDC125
Flight time N/A
Altitude 21000
Route OLDIP1A OLDIP DCT ATTUS DCT LINVI/N0268F220 DCT BADAB
Aircraft AT76/M-SDFGIRY/S

Departure

Time 2026-04-21 20:11
Airport Westerland Sylt Airport (EDXW)

Arrival

Time N/A
Airport Bergen Airport, Flesland (ENBR)
Time Latitude Longitude Altitude Speed Heading
2026-04-21 19:57 54.91351 8.33139 28 ft 0 kts 270°
2026-04-21 20:04 54.91350 8.33176 29 ft 4 kts 284°
2026-04-21 20:04 54.91338 8.33209 26 ft 2 kts 334°
2026-04-21 20:05 54.91336 8.33211 26 ft 0 kts 335°
2026-04-21 20:08 54.91354 8.33198 26 ft 15 kts 339°
2026-04-21 20:08 54.91433 8.33178 25 ft 10 kts 360°
2026-04-21 20:08 54.91510 8.33178 26 ft 11 kts 360°
2026-04-21 20:09 54.91584 8.33178 30 ft 14 kts 360°
2026-04-21 20:09 54.91677 8.33177 32 ft 13 kts 359°
2026-04-21 20:09 54.91771 8.33177 32 ft 14 kts
2026-04-21 20:09 54.91812 8.33191 32 ft 8 kts 18°
2026-04-21 20:10 54.91866 8.33227 31 ft 5 kts 25°
2026-04-21 20:10 54.91910 8.33297 31 ft 9 kts 94°
2026-04-21 20:10 54.91780 8.33499 33 ft 45 kts 145°
2026-04-21 20:10 54.91317 8.34062 32 ft 115 kts 146°
2026-04-21 20:11 54.90512 8.35035 83 ft 159 kts 143°
2026-04-21 20:11 54.89594 8.36311 391 ft 182 kts 141°
2026-04-21 20:11 54.88515 8.37736 718 ft 204 kts 144°
2026-04-21 20:11 54.87324 8.39206 1135 ft 215 kts 145°
2026-04-21 20:12 54.86080 8.40713 1598 ft 220 kts 146°
2026-04-21 20:12 54.84812 8.42240 2089 ft 223 kts 146°
2026-04-21 20:12 54.83526 8.43783 2591 ft 226 kts 146°
2026-04-21 20:12 54.82229 8.45341 3110 ft 227 kts 146°
2026-04-21 20:13 54.80922 8.46907 3568 ft 231 kts 146°
2026-04-21 20:13 54.79564 8.48529 3832 ft 244 kts 146°
2026-04-21 20:13 54.78126 8.50242 3922 ft 258 kts 146°
2026-04-21 20:14 54.75610 8.53276 4348 ft 188 kts 143°
2026-04-21 20:14 54.74478 8.54763 3949 ft 214 kts 143°
2026-04-21 20:14 54.73249 8.56339 3802 ft 222 kts 144°
2026-04-21 20:14 54.71977 8.57928 3779 ft 226 kts 144°
2026-04-21 20:15 54.70692 8.59509 3770 ft 225 kts 145°
2026-04-21 20:15 54.69440 8.61047 3800 ft 224 kts 145°
2026-04-21 20:15 54.68170 8.62604 3798 ft 223 kts 145°
2026-04-21 20:15 54.66896 8.64158 3796 ft 223 kts 145°
2026-04-21 20:16 54.65628 8.65711 3794 ft 223 kts 145°
2026-04-21 20:16 54.64360 8.67256 3792 ft 223 kts 145°
2026-04-21 20:16 54.63257 8.69079 3787 ft 221 kts 119°
2026-04-21 20:16 54.62996 8.71657 3776 ft 222 kts 80°
2026-04-21 20:17 54.63710 8.73964 3770 ft 222 kts 42°
2026-04-21 20:17 54.65085 8.75036 3767 ft 220 kts
2026-04-21 20:17 54.66561 8.74683 3770 ft 215 kts 346°
2026-04-21 20:17 54.68037 8.74154 3774 ft 217 kts 349°
2026-04-21 20:18 54.69524 8.73702 3775 ft 217 kts 351°
2026-04-21 20:18 54.71030 8.73426 3778 ft 218 kts 356°
2026-04-21 20:18 54.72552 8.73412 3781 ft 219 kts
2026-04-21 20:18 54.74073 8.73678 3785 ft 220 kts
2026-04-21 20:19 54.75576 8.74116 3821 ft 214 kts 10°
2026-04-21 20:19 54.76963 8.74576 3833 ft 193 kts 10°
2026-04-21 20:19 54.78236 8.74994 3824 ft 179 kts
2026-04-21 20:19 54.79399 8.75341 3980 ft 160 kts
2026-04-21 20:20 54.80428 8.75636 4165 ft 143 kts
2026-04-21 20:20 54.81365 8.75900 4354 ft 131 kts
2026-04-21 20:20 54.82268 8.76137 4555 ft 133 kts
2026-04-21 20:20 54.83203 8.76368 4764 ft 138 kts
2026-04-21 20:21 54.84166 8.76619 4974 ft 142 kts
2026-04-21 20:21 54.85152 8.76887 5183 ft 145 kts
2026-04-21 20:21 54.86160 8.77165 5389 ft 148 kts
2026-04-21 20:21 54.87185 8.77449 5598 ft 150 kts
2026-04-21 20:22 54.88228 8.77737 5796 ft 152 kts
2026-04-21 20:22 54.90347 8.78180 6194 ft 154 kts 347°
2026-04-21 20:22 54.91325 8.77496 6397 ft 152 kts 336°
2026-04-21 20:23 54.91761 8.77169 6486 ft 153 kts 336°
2026-04-21 20:23 54.92510 8.76615 6649 ft 154 kts 336°
2026-04-21 20:23 54.93488 8.75906 6840 ft 155 kts 337°
2026-04-21 20:23 54.94488 8.75191 7040 ft 155 kts 337°
2026-04-21 20:24 54.95491 8.74481 7241 ft 156 kts 337°
2026-04-21 20:24 54.96500 8.73772 7442 ft 156 kts 337°
2026-04-21 20:24 54.97508 8.73062 7645 ft 156 kts 337°
2026-04-21 20:24 54.98519 8.72354 7837 ft 157 kts 337°
2026-04-21 20:25 54.99528 8.71643 8047 ft 155 kts 337°
2026-04-21 20:25 55.00516 8.70949 8335 ft 150 kts 337°
2026-04-21 20:25 55.01474 8.70276 8604 ft 146 kts 337°
2026-04-21 20:25 55.02400 8.69624 8874 ft 142 kts 337°
2026-04-21 20:26 55.03299 8.68990 9146 ft 137 kts 337°
2026-04-21 20:26 55.04159 8.68384 9413 ft 133 kts 337°
2026-04-21 20:26 55.04997 8.67791 9679 ft 127 kts 337°
2026-04-21 20:26 55.05814 8.67212 9859 ft 128 kts 337°
2026-04-21 20:27 55.06649 8.66627 10013 ft 130 kts 337°
2026-04-21 20:27 55.07492 8.66037 10169 ft 131 kts 337°
2026-04-21 20:27 55.08336 8.65443 10334 ft 131 kts 337°
2026-04-21 20:27 55.09179 8.64848 10498 ft 131 kts 337°
2026-04-21 20:28 55.10023 8.64254 10661 ft 131 kts 337°
2026-04-21 20:28 55.10869 8.63658 10822 ft 131 kts 337°
2026-04-21 20:28 55.11715 8.63059 10976 ft 131 kts 337°
2026-04-21 20:28 55.12561 8.62463 11139 ft 131 kts 337°
2026-04-21 20:29 55.13408 8.61863 11290 ft 132 kts 337°
2026-04-21 20:29 55.14263 8.61256 11453 ft 133 kts 337°
2026-04-21 20:29 55.15125 8.60648 11621 ft 134 kts 337°
2026-04-21 20:29 55.15991 8.60034 11798 ft 135 kts 337°
2026-04-21 20:30 55.16861 8.59417 11969 ft 135 kts 337°
2026-04-21 20:30 55.17733 8.58800 12146 ft 135 kts 337°
2026-04-21 20:30 55.18606 8.58181 12319 ft 136 kts 337°
2026-04-21 20:30 55.19480 8.57560 12491 ft 136 kts 337°
2026-04-21 20:31 55.20357 8.56939 12656 ft 136 kts 337°
2026-04-21 20:31 55.21235 8.56314 12827 ft 136 kts 337°
2026-04-21 20:31 55.22110 8.55694 12992 ft 136 kts 337°
2026-04-21 20:31 55.22991 8.55066 13156 ft 136 kts 337°
2026-04-21 20:32 55.23872 8.54440 13317 ft 136 kts 337°
2026-04-21 20:32 55.24740 8.53821 13474 ft 137 kts 337°
2026-04-21 20:32 55.25623 8.53193 13630 ft 137 kts 337°
2026-04-21 20:32 55.26503 8.52565 13786 ft 137 kts 337°
2026-04-21 20:33 55.27385 8.51938 13942 ft 137 kts 337°
2026-04-21 20:33 55.28267 8.51309 14083 ft 137 kts 337°
2026-04-21 20:33 55.29148 8.50680 14235 ft 137 kts 337°
2026-04-21 20:33 55.30030 8.50052 14380 ft 137 kts 337°
2026-04-21 20:34 55.30910 8.49423 14520 ft 136 kts 337°
2026-04-21 20:34 55.31790 8.48795 14658 ft 136 kts 337°
2026-04-21 20:34 55.32665 8.48168 14792 ft 136 kts 337°
2026-04-21 20:34 55.33540 8.47542 14923 ft 136 kts 337°
2026-04-21 20:35 55.34415 8.46916 15053 ft 135 kts 337°
2026-04-21 20:35 55.35286 8.46293 15173 ft 135 kts 337°
2026-04-21 20:35 55.36156 8.45672 15292 ft 135 kts 337°
2026-04-21 20:35 55.37039 8.45038 15431 ft 136 kts 337°
2026-04-21 20:36 55.37903 8.44420 15546 ft 135 kts 337°
2026-04-21 20:36 55.38784 8.43787 15642 ft 135 kts 337°
2026-04-21 20:36 55.39655 8.43163 15734 ft 135 kts 337°
2026-04-21 20:36 55.40517 8.42544 15819 ft 135 kts 337°
2026-04-21 20:37 55.41391 8.41917 15906 ft 136 kts 337°
2026-04-21 20:37 55.42266 8.41288 15999 ft 136 kts 337°
2026-04-21 20:37 55.43141 8.40659 16076 ft 136 kts 337°
2026-04-21 20:37 55.44017 8.40028 16165 ft 136 kts 337°
2026-04-21 20:38 55.44897 8.39396 16240 ft 137 kts 337°
2026-04-21 20:38 55.45776 8.38762 16329 ft 136 kts 337°
2026-04-21 20:38 55.46656 8.38129 16407 ft 137 kts 337°
2026-04-21 20:38 55.47539 8.37492 16486 ft 137 kts 337°
2026-04-21 20:39 55.48421 8.36857 16564 ft 137 kts 337°
2026-04-21 20:39 55.49305 8.36220 16640 ft 137 kts 337°
2026-04-21 20:39 55.50189 8.35581 16716 ft 137 kts 337°
2026-04-21 20:39 55.51077 8.34941 16790 ft 138 kts 336°
2026-04-21 20:40 55.51964 8.34300 16859 ft 138 kts 337°
2026-04-21 20:40 55.52855 8.33657 16940 ft 140 kts 337°
2026-04-21 20:40 55.53767 8.32994 17106 ft 145 kts 337°
2026-04-21 20:40 55.54713 8.32313 17286 ft 148 kts 337°
2026-04-21 20:41 55.55675 8.31618 17500 ft 150 kts 337°
2026-04-21 20:41 55.56647 8.30913 17694 ft 154 kts 337°
2026-04-21 20:41 55.57669 8.30174 17787 ft 164 kts 337°
2026-04-21 20:41 55.58765 8.29379 17822 ft 177 kts 337°
2026-04-21 20:42 55.59924 8.28522 17825 ft 185 kts 336°
2026-04-21 20:42 55.61111 8.27640 17838 ft 185 kts 336°
2026-04-21 20:42 55.62282 8.26782 17839 ft 178 kts 337°
2026-04-21 20:42 55.63406 8.25960 17837 ft 170 kts 337°
2026-04-21 20:43 55.64478 8.25164 17833 ft 164 kts 336°
2026-04-21 20:43 55.65526 8.24369 17780 ft 165 kts 336°
2026-04-21 20:43 55.66617 8.23551 17798 ft 179 kts 336°
2026-04-21 20:43 55.67811 8.22689 17823 ft 188 kts 338°
2026-04-21 20:44 55.69047 8.21835 17833 ft 192 kts 338°
2026-04-21 20:44 55.70305 8.20961 17837 ft 196 kts 338°
2026-04-21 20:44 55.71585 8.20042 17839 ft 200 kts 337°
2026-04-21 20:44 55.72881 8.19100 17840 ft 203 kts 337°
2026-04-21 20:45 55.74198 8.18137 17838 ft 205 kts 337°
2026-04-21 20:45 55.75524 8.17169 17838 ft 207 kts 337°
2026-04-21 20:45 55.76867 8.16185 17837 ft 210 kts 337°
2026-04-21 20:45 55.78224 8.15191 17836 ft 212 kts 337°
2026-04-21 20:46 55.79592 8.14190 17835 ft 214 kts 337°
2026-04-21 20:46 55.80958 8.13185 17833 ft 215 kts 337°
2026-04-21 20:46 55.82346 8.12167 17832 ft 217 kts 337°
2026-04-21 20:46 55.83745 8.11136 17830 ft 218 kts 337°
2026-04-21 20:47 55.85149 8.10105 17829 ft 219 kts 337°
2026-04-21 20:47 55.86561 8.09067 17827 ft 220 kts 337°
2026-04-21 20:47 55.87978 8.08023 17826 ft 220 kts 337°
2026-04-21 20:47 55.89397 8.06978 17825 ft 221 kts 337°
2026-04-21 20:48 55.90819 8.05926 17824 ft 221 kts 337°
2026-04-21 20:48 55.92242 8.04876 17822 ft 222 kts 337°
2026-04-21 20:48 55.93671 8.03820 17823 ft 222 kts 337°
2026-04-21 20:48 55.95078 8.02779 17822 ft 222 kts 337°
2026-04-21 20:49 55.96529 8.01707 17822 ft 223 kts 337°
2026-04-21 20:49 55.97958 8.00645 17821 ft 223 kts 337°
2026-04-21 20:49 55.99394 7.99582 17821 ft 223 kts 337°
2026-04-21 20:49 56.00828 7.98518 17820 ft 223 kts 337°
2026-04-21 20:50 56.02261 7.97453 17820 ft 223 kts 337°
2026-04-21 20:50 56.03676 7.96403 17819 ft 223 kts 337°
2026-04-21 20:50 56.04645 7.95682 17820 ft 223 kts 337°
2026-04-21 20:50 56.06550 7.94263 17819 ft 223 kts 337°
2026-04-21 20:51 56.07986 7.93195 17819 ft 224 kts 337°
2026-04-21 20:51 56.09423 7.92122 17818 ft 224 kts 337°
2026-04-21 20:51 56.10375 7.91412 17818 ft 224 kts 337°
2026-04-21 20:51 56.12297 7.89976 17818 ft 224 kts 337°
2026-04-21 20:52 56.13247 7.89267 17818 ft 224 kts 337°
2026-04-21 20:52 56.14685 7.88194 17818 ft 224 kts 337°
2026-04-21 20:52 56.16121 7.87116 17817 ft 224 kts 337°
2026-04-21 20:52 56.17555 7.86044 17818 ft 224 kts 337°
2026-04-21 20:53 56.18995 7.84966 17818 ft 224 kts 336°
2026-04-21 20:53 56.20433 7.83884 17818 ft 224 kts 337°
2026-04-21 20:53 56.21870 7.82807 17818 ft 224 kts 337°
2026-04-21 20:53 56.23307 7.81725 17818 ft 224 kts 337°
2026-04-21 20:54 56.24745 7.80644 17817 ft 224 kts 337°
2026-04-21 20:54 56.26180 7.79567 17818 ft 224 kts 336°
2026-04-21 20:54 56.27615 7.78483 17817 ft 224 kts 337°
2026-04-21 20:54 56.29053 7.77399 17817 ft 224 kts 337°
2026-04-21 20:55 56.30477 7.76325 17818 ft 224 kts 336°
2026-04-21 20:55 56.31913 7.75240 17818 ft 224 kts 337°
2026-04-21 20:55 56.33348 7.74158 17818 ft 224 kts 337°
2026-04-21 20:55 56.34781 7.73072 17818 ft 224 kts 337°
2026-04-21 20:56 56.36219 7.71985 17817 ft 224 kts 337°
2026-04-21 20:56 56.37655 7.70897 17817 ft 224 kts 336°
2026-04-21 20:56 56.39091 7.69807 17817 ft 224 kts 337°
2026-04-21 20:56 56.40526 7.68719 17818 ft 224 kts 337°
2026-04-21 20:57 56.41963 7.67626 17818 ft 224 kts 337°
2026-04-21 20:57 56.43399 7.66535 17818 ft 224 kts 336°
2026-04-21 20:57 56.44838 7.65442 17818 ft 224 kts 336°
2026-04-21 20:57 56.46274 7.64347 17817 ft 224 kts 336°
2026-04-21 20:58 56.47709 7.63255 17818 ft 224 kts 337°
2026-04-21 20:58 56.49143 7.62159 17817 ft 224 kts 336°
2026-04-21 20:58 56.50579 7.61064 17818 ft 224 kts 336°
2026-04-21 20:58 56.52015 7.59970 17817 ft 224 kts 336°
2026-04-21 20:59 56.53451 7.58869 17817 ft 224 kts 336°
2026-04-21 20:59 56.54887 7.57771 17817 ft 224 kts 336°
2026-04-21 20:59 56.56321 7.56674 17817 ft 224 kts 336°
2026-04-21 20:59 56.57755 7.55573 17818 ft 224 kts 336°
2026-04-21 21:00 56.59172 7.54488 17818 ft 224 kts 336°
2026-04-21 21:00 56.60603 7.53387 17817 ft 224 kts 336°
2026-04-21 21:00 56.62036 7.52287 17817 ft 224 kts 336°
2026-04-21 21:00 56.63474 7.51183 17817 ft 224 kts 336°
2026-04-21 21:01 56.64910 7.50077 17817 ft 224 kts 336°
2026-04-21 21:01 56.66343 7.48974 17818 ft 224 kts 336°
2026-04-21 21:01 56.67777 7.47867 17817 ft 224 kts 336°
2026-04-21 21:01 56.69213 7.46760 17818 ft 224 kts 336°
2026-04-21 21:02 56.70651 7.45652 17817 ft 224 kts 336°
2026-04-21 21:02 56.72065 7.44556 17817 ft 224 kts 336°
2026-04-21 21:02 56.73502 7.43446 17818 ft 224 kts 336°
2026-04-21 21:02 56.74933 7.42338 17817 ft 224 kts 336°
2026-04-21 21:03 56.76371 7.41224 17818 ft 224 kts 336°
2026-04-21 21:03 56.77805 7.40115 17817 ft 224 kts 336°
2026-04-21 21:03 56.79240 7.38998 17818 ft 224 kts 336°
2026-04-21 21:03 56.80673 7.37886 17818 ft 224 kts 336°
2026-04-21 21:04 56.82107 7.36771 17817 ft 224 kts 336°
2026-04-21 21:04 56.83539 7.35658 17818 ft 224 kts 336°
2026-04-21 21:04 56.84973 7.34543 17817 ft 224 kts 336°
2026-04-21 21:04 56.86406 7.33423 17818 ft 224 kts 336°
2026-04-21 21:05 56.87839 7.32306 17817 ft 224 kts 336°
2026-04-21 21:05 56.89273 7.31189 17818 ft 224 kts 336°
2026-04-21 21:05 56.90707 7.30067 17818 ft 224 kts 336°
2026-04-21 21:05 56.92119 7.28964 17818 ft 224 kts 336°
2026-04-21 21:06 56.93552 7.27841 17818 ft 224 kts 336°
2026-04-21 21:06 56.94987 7.26718 17817 ft 224 kts 336°
2026-04-21 21:06 56.96419 7.25599 17817 ft 224 kts 336°
2026-04-21 21:06 56.97855 7.24476 17818 ft 224 kts 336°
2026-04-21 21:07 56.99266 7.23368 17818 ft 224 kts 336°
2026-04-21 21:07 57.00705 7.22268 17817 ft 223 kts 339°
2026-04-21 21:07 57.02181 7.21376 17818 ft 224 kts 343°
2026-04-21 21:07 57.03684 7.20603 17818 ft 224 kts 344°
2026-04-21 21:08 57.05187 7.19845 17818 ft 224 kts 344°
2026-04-21 21:08 57.06692 7.19081 17817 ft 224 kts 343°
2026-04-21 21:08 57.08191 7.18281 17817 ft 224 kts 343°
2026-04-21 21:08 57.09688 7.17464 17817 ft 224 kts 343°
2026-04-21 21:09 57.11185 7.16641 17818 ft 224 kts 343°
2026-04-21 21:09 57.12678 7.15821 17818 ft 224 kts 343°
2026-04-21 21:09 57.14157 7.15005 17817 ft 224 kts 343°
2026-04-21 21:09 57.15649 7.14182 17817 ft 224 kts 343°
2026-04-21 21:10 57.17144 7.13358 17817 ft 224 kts 343°
2026-04-21 21:10 57.18639 7.12529 17817 ft 224 kts 343°
2026-04-21 21:10 57.20134 7.11702 17817 ft 224 kts 343°
2026-04-21 21:10 57.21629 7.10876 17818 ft 224 kts 342°
2026-04-21 21:11 57.23124 7.10047 17818 ft 224 kts 343°
2026-04-21 21:11 57.24619 7.09220 17818 ft 224 kts 343°
2026-04-21 21:11 57.26110 7.08389 17818 ft 224 kts 343°
2026-04-21 21:11 57.27607 7.07559 17818 ft 224 kts 343°
2026-04-21 21:12 57.29085 7.06738 17817 ft 224 kts 342°
2026-04-21 21:12 57.30580 7.05905 17817 ft 224 kts 343°
2026-04-21 21:12 57.32072 7.05075 17818 ft 224 kts 343°
2026-04-21 21:12 57.33566 7.04240 17817 ft 224 kts 343°
2026-04-21 21:13 57.35061 7.03407 17817 ft 224 kts 343°
2026-04-21 21:13 57.36555 7.02575 17817 ft 224 kts 342°
2026-04-21 21:13 57.38049 7.01738 17817 ft 224 kts 343°
2026-04-21 21:13 57.39545 7.00902 17818 ft 224 kts 343°
2026-04-21 21:14 57.41039 7.00065 17818 ft 224 kts 342°
2026-04-21 21:14 57.42531 6.99229 17818 ft 224 kts 342°
2026-04-21 21:14 57.44025 6.98394 17817 ft 224 kts 342°
2026-04-21 21:14 57.45517 6.97554 17818 ft 224 kts 343°
2026-04-21 21:15 57.47012 6.96715 17818 ft 224 kts 343°
2026-04-21 21:15 57.48506 6.95875 17818 ft 224 kts 342°
2026-04-21 21:15 57.49999 6.95034 17817 ft 224 kts 342°
2026-04-21 21:15 57.51493 6.94194 17817 ft 224 kts 343°
2026-04-21 21:16 57.52990 6.93349 17818 ft 224 kts 342°
2026-04-21 21:16 57.54464 6.92518 17818 ft 224 kts 342°
2026-04-21 21:16 57.55958 6.91676 17817 ft 224 kts 342°
2026-04-21 21:16 57.57453 6.90830 17818 ft 224 kts 342°
2026-04-21 21:17 57.58945 6.89987 17818 ft 224 kts 343°
2026-04-21 21:17 57.60443 6.89138 17818 ft 224 kts 342°
2026-04-21 21:17 57.61938 6.88291 17817 ft 224 kts 342°
2026-04-21 21:17 57.63431 6.87447 17818 ft 224 kts 342°
2026-04-21 21:18 57.64925 6.86596 17817 ft 224 kts 342°
2026-04-21 21:18 57.66421 6.85747 17818 ft 224 kts 342°
2026-04-21 21:18 57.67913 6.84899 17818 ft 224 kts 342°
2026-04-21 21:18 57.69409 6.84048 17817 ft 224 kts 342°
2026-04-21 21:19 57.70901 6.83201 17817 ft 224 kts 342°
2026-04-21 21:19 57.72392 6.82348 17818 ft 224 kts 342°
2026-04-21 21:19 57.73887 6.81495 17818 ft 224 kts 342°
2026-04-21 21:19 57.75361 6.80654 17817 ft 224 kts 342°
2026-04-21 21:20 57.76856 6.79799 17818 ft 224 kts 342°
2026-04-21 21:20 57.78351 6.78946 17818 ft 224 kts 342°
2026-04-21 21:20 57.79845 6.78089 17818 ft 224 kts 342°
2026-04-21 21:20 57.81336 6.77236 17818 ft 224 kts 342°
2026-04-21 21:21 57.82831 6.76379 17818 ft 224 kts 342°
2026-04-21 21:21 57.84324 6.75521 17818 ft 224 kts 342°
2026-04-21 21:21 57.85817 6.74664 17817 ft 224 kts 342°
2026-04-21 21:21 57.87312 6.73803 17818 ft 224 kts 342°
2026-04-21 21:22 57.88804 6.72945 17818 ft 224 kts 342°
2026-04-21 21:22 57.90296 6.72088 17817 ft 224 kts 342°
2026-04-21 21:22 57.91788 6.71226 17818 ft 224 kts 342°
2026-04-21 21:22 57.93281 6.70366 17818 ft 224 kts 342°
2026-04-21 21:23 57.94772 6.69504 17817 ft 224 kts 342°
2026-04-21 21:23 57.96249 6.68651 17818 ft 224 kts 342°
2026-04-21 21:23 57.97738 6.67792 17818 ft 224 kts 342°
2026-04-21 21:23 57.99233 6.66924 17818 ft 224 kts 342°
2026-04-21 21:24 58.00723 6.66061 17817 ft 224 kts 342°
2026-04-21 21:24 58.02216 6.65196 17818 ft 224 kts 342°
2026-04-21 21:24 58.03710 6.64327 17817 ft 224 kts 342°
2026-04-21 21:24 58.05201 6.63462 17817 ft 224 kts 342°
2026-04-21 21:25 58.06695 6.62591 17817 ft 224 kts 342°
2026-04-21 21:25 58.08187 6.61723 17818 ft 224 kts 342°
2026-04-21 21:25 58.09679 6.60857 17818 ft 224 kts 342°
2026-04-21 21:25 58.11172 6.59985 17818 ft 224 kts 342°
2026-04-21 21:26 58.12665 6.59114 17818 ft 224 kts 342°
2026-04-21 21:26 58.14157 6.58242 17817 ft 224 kts 342°
2026-04-21 21:26 58.15649 6.57371 17817 ft 224 kts 342°
2026-04-21 21:26 58.17120 6.56512 17818 ft 224 kts 342°
2026-04-21 21:27 58.18615 6.55634 17817 ft 224 kts 342°
2026-04-21 21:27 58.20109 6.54759 17817 ft 224 kts 342°
2026-04-21 21:27 58.21600 6.53885 17819 ft 224 kts 342°
2026-04-21 21:27 58.23092 6.53007 17819 ft 224 kts 342°
2026-04-21 21:28 58.24585 6.52132 17819 ft 225 kts 342°
2026-04-21 21:28 58.26078 6.51252 17817 ft 225 kts 342°
2026-04-21 21:28 58.28549 6.49800 17817 ft 224 kts 342°